カタログに戻る

OPS 5798

TRANSIT 5B-4

運用中ナビゲーションPO
NORAD 897·PAYLOAD·🇺🇸 United States

打ち上げ Oct 6, 1964 から Vandenberg Space Force Base

Loading…

次のパス (今後24時間)

TLE

最新Source: Space-Track

元期: Sep 14, 2026, 11:26 UTC

1 00897U 64063B   26257.47695256  .00000037  00000-0  42465-4 0  9994
2 00897  90.2283  77.6099 0017662 280.1745 108.1553 13.53743857 57301

AllMySatでOPS 5798をリアルタイム追跡

Download on the App Store